Location: Prague
(50.0830°N, 14.4670°E)
Time: 04:28:12
(UTC+01:00)

ITUPSAT 1 - Pass Details

Date: 04 December 2021
Orbit: 700 x 713 km, 98.6° (Epoch: 28 January)

Event Time Altitude Azimuth Distance (km) Brightness Sun altitude
Rises 06:41:26 0° 163° (SSE) 3,088 ? -9.5°
Reaches altitude 10° 06:43:40 10° 163° (SSE) 2,176 ? -9.1°
Maximum altitude 06:48:27 89° 78° (ENE) 717 ? -8.4°
Drops below altitude 10° 06:53:17 10° 345° (NNW) 2,200 ? -7.7°
Sets 06:55:34 0° 346° (NNW) 3,125 ? -7.4°
